Погода в Латси

Кипр     35°01′40″N   32°25′00″E
темп.,
°C
ветер,
м/с
пор.,
м/с
влажн.,
%
обл.,
%
осадки,
мм/ч
давл.,
гПа
погр.,
м
22 апреля, чт
чт2200:00+10зюз11770 0.0 101956
03:00+10ююз12800 0.0 101953
06:00+10ю22830 0.0 101957
09:00+16зюз23550 0.0 1020589
12:00+19з43400 0.0 1019877
15:00+20зсз44420 0.0 1019817
18:00+17сз44550 0.0 1019424
21:00+13ссв22745 0.0 101918
23 апреля, пт
пт2300:00+12св22650 0.0 102015
03:00+12вюв21414 0.0 101913
06:00+11св11390 0.0 101912
09:00+19юз01251 0.0 1019345
12:00+22зсз32300 0.0 1019921
15:00+23зсз42355 0.0 1018847
18:00+19ссз3243100 0.0 1017306
21:00+15ссв22625 0.0 101717
24 апреля, сб
сб2400:00+14ссв22560 0.0 101712
03:00+14св22440 0.0 101511
06:00+14всв11330 0.0 101411
09:00+22ссз21240 0.0 1014300
12:00+25сз22251 0.0 1013867
15:00+25сз322880 0.0 1012784
18:00+23ссз2234100 0.0 1011292
21:00+18св224275 0.0 101211
25 апреля, вс
вс2500:00+17ссв2244100 0.0 101111
03:00+18вюв223324 0.0 100911
06:00+17ююв1134100 0.0 100911
09:00+24зюз0127100 0.0 1009216
12:00+27зюз2323100 0.0 1008864
15:00+27юз3321100 0.0 1007712
18:00+24з1126100 0.0 1006373
21:00+20ю113991 0.0 100711
26 апреля, пн
пн2600:00+17ююз11434 0.0 100611
03:00+15ю22490 0.0 100517
06:00+13ю22630 0.0 100517
09:00+20з22430 0.0 1006483
12:00+22зсз43410 0.0 1007977
15:00+22зсз55390 0.0 1007762
18:00+20зсз34530 0.0 1008532
21:00+15юз11890 0.0 101031